Simultaneous Nadir Overpasses (SNOs) Predictions

Prediction of SNOs between GOES-17 and NOAA-19 Satellite Orbit:

Table of predicted SNOs for the next 14.0 days since TLE Epoch: 5/17/2019
Index Date Time (GOES-17) GOES-17 Lat,Lon NOAA-19 Lat,Lon Distance(km) Time Diff (sec)
1 05/18/2019 02:12:48 0.01,-137.16 -0.76,-140.45 375.36 80
2 05/19/2019 02:01:11 0.00,-137.15 -0.12,-137.60 52.20 80
3 05/20/2019 01:52:14 0.00,-137.14 0.57,-134.78 270.93 80
4 05/22/2019 14:13:14 -0.00,-137.18 0.59,-139.74 292.82 80
5 05/23/2019 13:58:57 -0.00,-137.16 -0.05,-136.90 29.72 80
6 05/24/2019 13:47:20 -0.01,-137.15 -0.75,-134.07 352.05 80
7 05/27/2019 02:08:38 0.01,-137.05 -0.50,-139.10 234.71 80
8 05/28/2019 01:59:41 0.01,-137.04 0.21,-136.28 87.46 80
9 05/29/2019 01:48:04 0.01,-137.02 0.85,-133.44 409.44 80
10 05/30/2019 14:18:01 -0.01,-137.05 0.95,-141.24 478.47 80




NCC Satellite Simultaneous Nadir Overpasses (SNOs) Prediction Service
